This is the latest recevied weather packets stored in our database for station/object LY3FF-10. If no packets are shown the sender has not sent any weather packets the latest 10 day(s).
| Time | Temp. | Humidity | Pressure | Rain* | Wind** | Luminosity | Snow |
|---|---|---|---|---|---|---|---|
| 1777788147 | 15° C | 40% | 994.5 hPa | - | - | - | - |
| 1777787422 | 14.44° C | 40% | 994.6 hPa | - | - | - | - |
| 1777786657 | 14.44° C | 40% | 994.6 hPa | - | - | - | - |
| 1777785816 | 13.33° C | 41% | 994.7 hPa | - | - | - | - |
| 1777784942 | 12.22° C | 42% | 994.8 hPa | - | - | - | - |
| 1777784222 | 12.22° C | 42% | 994.7 hPa | - | - | - | - |
| 1777783357 | 12.22° C | 43% | 994.8 hPa | - | - | - | - |
| 1777782623 | 11.11° C | 43% | 994.8 hPa | - | - | - | - |
| 1777781852 | 10.56° C | 43% | 994.8 hPa | - | - | - | - |
| 1777780952 | 11.11° C | 43% | 994.7 hPa | - | - | - | - |
| 1777780227 | 10° C | 43% | 994.8 hPa | - | - | - | - |
| 1777779327 | 10.56° C | 43% | 994.9 hPa | - | - | - | - |
| 1777778547 | 10.56° C | 43% | 994.8 hPa | - | - | - | - |
| 1777777722 | 10.56° C | 43% | 994.9 hPa | - | - | - | - |
| 1777776882 | 10° C | 43% | 995 hPa | - | - | - | - |
| 1777776041 | 10° C | 43% | 995 hPa | - | - | - | - |
| 1777775187 | 8.89° C | 43% | 995 hPa | - | - | - | - |
| 1777774361 | 10° C | 43% | 995.1 hPa | - | - | - | - |
| 1777773627 | 10° C | 43% | 995.1 hPa | - | - | - | - |
| 1777772871 | 10° C | 42% | 995.1 hPa | - | - | - | - |
| 1777771987 | 10° C | 41% | 995.3 hPa | - | - | - | - |
| 1777771127 | 10.56° C | 40% | 995.4 hPa | - | - | - | - |
| 1777770247 | 9.44° C | 40% | 995.4 hPa | - | - | - | - |
| 1777769472 | 9.44° C | 39% | 995.4 hPa | - | - | - | - |
| 1777768752 | 10.56° C | 39% | 995.6 hPa | - | - | - | - |
* Rain since midnight (hover to see other rain measurements)
** Current wind speed in m/s (hover to see current wind gust speed)